Weather in Studenets

Russia / Ulyanovsk Oblast     53°24′22″N   47°58′02″E
temp.,
°C
wind,
m/s
gust,
m/s
humid.,
%
clouds,
%
prec.,
mm/h
press.,
hPa
HPBL,
m
13 may, thu
thu1301:00+14e39690 0.0 1023157
04:00+14e4116149 0.0 1022242
07:00+16e51266100 0.0 1022339
10:00+17ese6126798 0.4 1021556
13:00+23se9145061 0.0 10211148
16:00+22se101553100 0.0 1020968
19:00+21se61360100 0.0 1019453
22:00+18se4126892 0.1 1020254
14 may, fri
fri1401:00+17se5156256 0.3 1020359
04:00+14se346828 0.3 102051
07:00+16se2667100 0.0 1021173
10:00+21sse575297 0.0 1021411
13:00+24s6944100 0.0 1021961
16:00+25s69420 0.0 10201321
19:00+23sse37555 0.0 1020163
22:00+19sse3458100 0.0 102045
15 may, sat
sat1501:00+18sse3658100 0.0 102085
04:00+16sse4953100 0.0 1020144
07:00+18sse3105710 0.0 1020208
10:00+23s610415 0.0 1020474
13:00+26s710317 0.0 1020915
16:00+27s610345 0.0 10191337
19:00+24sse410465 0.0 1018227
22:00+19sse465040 0.0 101876
16 may, sun
sun1601:00+18sse375117 0.0 101895
04:00+16sse365342 0.0 101877
07:00+18s395948 0.0 1018195
10:00+24s574323 0.0 1018482
13:00+27ssw693349 0.0 10171550
16:00+27ssw683561 0.0 10171865
19:00+24ssw3451100 0.0 101678
22:00+20s1250100 0.0 101711
17 may, mon
mon1701:00+19se1152100 0.0 101711
04:00+19ne115272 0.0 101711
07:00+20s265999 0.0 1018167
10:00+26ssw343776 0.0 1017351
13:00+28s463476 0.0 10181363
16:00+29ssw5627100 0.0 10172988
19:00+25sw1245100 0.0 101713
22:00+21ese1143100 0.0 101811